Current weather by "City, St" or "zip code"  
 

Current Conditions: Nashville, Nashville International Airport, TN

A Few Clouds


66.0 F

Last Updated on Oct 31 2020, 1:53 pm CDT
Humidity: 47%
Wind Speed: S 6.9 mph
Barometer 30.25 in
Dewpoint: 45.0 F
Visibility: 10.00 mi
Precip: --
Heat Index: NA
Wind Chill: NA
Current conditions at:

Nashville, Nashville International Airport, TN (KBNA)

Lat: 36.11889 Lon: 86.68917

Local Radar Image active severe weather and emergency alerts image image weather storm and storm spotter reports image weather observation monitoring service image
Local
Radar
Active
Alerts
Storm Reports Obs
Monitoring

Sign-up For Email & Text Message Weather Alert Notification Services



Advertise Here

Observation History for Nashville, Nashville International Airport, TN


Time Wind
(mph)
Vis
(mi)
Weather Precip (in) Temperature (F) Relative
Humidity
Wind
Chill
(F)
Heat
Index
(F)
Pressure
Air Dwpt altimeter
(in)
sea level
(mb)
Rmks
1:53 pm CDT S 6.9 10.00 A Few Clouds -- 66.0 45.0 47% NA NA 30.25 1024.4
12:53 pm CDT S 6.9 10.00 A Few Clouds -- 65.0 43.0 45% NA NA 30.29 1025.6
11:53 am CDT SW 5.8 10.00 A Few Clouds -- 59.0 41.0 51% 58 NA 30.33 1027.0
10:53 am CDT S 4.6 10.00 A Few Clouds -- 55.0 41.0 59% 54 NA 30.35 1027.8
9:53 am CDT SE 5.8 10.00 A Few Clouds -- 51.0 39.9 66% 49 NA 30.36 1028.1
8:53 am CDT N 0.0 10.00 A Few Clouds -- 46.0 39.9 79% NA NA 30.37 1028.3
7:53 am CDT N 0.0 10.00 Partly Cloudy -- 40.0 37.0 89% NA NA 30.34 1027.7
6:53 am CDT S 3.5 10.00 Partly Cloudy -- 39.0 36.0 89% NA NA 30.34 1027.6
5:53 am CDT NE 4.6 10.00 A Few Clouds -- 41.0 37.0 86% 38 NA 30.33 1027.1
4:53 am CDT N 4.6 10.00 Fair -- 41.0 36.0 82% 38 NA 30.32 1026.6
3:53 am CDT NE 3.5 10.00 Fair -- 41.0 36.0 82% NA NA 30.32 1026.7
2:53 am CDT NE 3.5 10.00 Fair -- 42.0 37.0 82% NA NA 30.32 1026.8
1:53 am CDT N 0.0 10.00 Fair -- 41.0 36.0 82% NA NA 30.33 1027.0
12:53 am CDT N 0.0 10.00 Fair -- 42.0 37.0 82% NA NA 30.33 1027.1
11:53 pm CDT NE 3.5 10.00 Fair -- 45.0 37.0 74% NA NA 30.33 1027.0
10:53 pm CDT N 4.6 10.00 Fair -- 46.0 37.0 71% 44 NA 30.33 1027.1
9:53 pm CDT N 4.6 10.00 Fair -- 47.0 37.0 69% 45 NA 30.31 1026.5
8:53 pm CDT N 0.0 10.00 Fair -- 48.0 37.0 66% NA NA 30.31 1026.3
7:53 pm CDT N 3.5 10.00 Fair -- 50.0 35.1 57% NA NA 30.31 1026.3
6:53 pm CDT N 4.6 10.00 Fair -- 50.0 35.1 57% 48 NA 30.30 1026.0
5:53 pm CDT N 5.8 10.00 Fair -- 51.0 35.1 54% 49 NA 30.28 1025.5
4:53 pm CDT N 6.9 10.00 A Few Clouds -- 56.0 35.1 46% 54 NA 30.28 1025.2
3:53 pm CDT N 5.8 10.00 A Few Clouds -- 56.0 36.0 47% 55 NA 30.28 1025.2
2:53 pm CDT NW 9.2 10.00 Partly Cloudy -- 56.0 36.0 47% 54 NA 30.27 1025.1

Regional Weather Observation


Smyrna, Smyrna Airport, TN (KMQY)

Fair
66.0 F

Clarksville Outlaw Field, TN (KCKV)

Fair
63.0 F

Fort Campbell U. S. Army Airfield, KY (KHOP)

Fair
60.0 F

Bowling Green, Bowling Green-Warren County Regional Airport, KY (KBWG)

Fair
63.0 F

Columbia / Maury County, TN (KMRC)

Fair
66.0 F

Tullahoma Regional Airport/William Northern Field, TN (KTHA)

Fair with Haze
63.0 F